San Jose, Costa Rica

8:09 PM CST on April 26, 2018 (GMT -0600)
Juan Santamaria International

Weather History for MROC - August, 2012

Change the Weather History Date:

Thursday, August 2, 2012

  Actual Average Record
Temperature  
Mean Temperature 76 °F -  
Max Temperature 83 °F 80 °F 86 °F (1997)
Min Temperature 68 °F 64 °F 62 °F (2000)
Cooling Degree Days 10    
Growing Degree Days 26 (Base 50)    
Moisture  
Dew Point 65 °F    
Average Humidity 75    
Maximum Humidity 88    
Minimum Humidity 38    
Precipitation  
Precipitation 0.00 in 0.37 in - ()
Sea Level Pressure  
Sea Level Pressure 29.98 in    
Wind  
Wind Speed 6 mph ()    
Max Wind Speed 15 mph    
Max Gust Speed -    
Visibility 7.9 miles    
Events Rain    
Averages and records for this station are not official NWS values.
T = Trace of Precipitation, MM = Missing Value Source: Averaged Metar Reports

Daily Weather History Graph

Daily Weather History Graph

Search for Another Location

Airport or City:

Astronomy

Aug. 02, 2012 Rise Set
Actual Time 5:26 AM CST 5:59 PM CST
Civil Twilight 5:04 AM CST 6:21 PM CST
Nautical Twilight 4:38 AM CST 6:47 PM CST
Astronomical Twilight 4:12 AM CST 7:13 PM CST
Moon 6:28 PM CST (8/2) 5:46 AM CST (8/2)
Length of Visible Light 13h 16m
Length of Day
12h 32m
Full, 100% of the Moon is Illuminated
Aug 2
Full
Aug 9
Last Quarter
Aug 17
New
Aug 24
First Quarter
Aug 31
Full

Hourly Weather History & Observations

Time (CST) Temp. Heat Index Dew Point Humidity Pressure Visibility Wind Dir Wind Speed Gust Speed Precip Events Conditions
12:00 AM 70 °F - 64 °F 77% 29.87 in 12 mi East 6.9 mph - -   Overcast
12:00 AM 69.8 °F - 64.4 °F 83% 30.03 in 6.2 mi East 6.9 mph - N/A   Scattered Clouds
1:00 AM 69.8 °F - 64.4 °F 83% 30.03 in 6.2 mi East 4.6 mph - N/A   Scattered Clouds
2:00 AM 69.8 °F - 66.2 °F 88% 30.02 in 6.2 mi ENE 2.3 mph - N/A   Scattered Clouds
3:00 AM 70 °F - 64 °F 75% 29.86 in 12 mi ENE 5.8 mph - -   Partly Cloudy
3:00 AM 69.8 °F - 64.4 °F 83% 30.01 in - ENE 5.8 mph - N/A   Clear
4:00 AM 69.8 °F - 64.4 °F 83% 30.01 in - East 5.8 mph - N/A   Clear
5:00 AM 69.8 °F - 64.4 °F 83% 30.02 in 6.2 mi East 4.6 mph - N/A   Scattered Clouds
6:00 AM 70 °F - 62 °F 69% 29.83 in 12 mi East 8.1 mph - -   Scattered Clouds
6:00 AM 69.8 °F - 62.6 °F 78% 30.01 in 6.2 mi East 8.1 mph - N/A   Mostly Cloudy
7:00 AM 71.6 °F - 64.4 °F 78% 30.02 in 6.2 mi East 11.5 mph - N/A   Mostly Cloudy
8:00 AM 75.2 °F - 64.4 °F 69% 30.01 in - East 10.4 mph - N/A   Clear
9:00 AM 79 °F - 64 °F 52% 29.83 in 12 mi ESE 15.0 mph - -   Clear
9:00 AM 78.8 °F - 64.4 °F 61% 30.02 in - ESE 15.0 mph - N/A   Clear
10:00 AM 80.6 °F 81.8 °F 62.6 °F 54% 30.03 in - ESE 12.7 mph - N/A   Clear
11:00 AM 80.6 °F 82.3 °F 64.4 °F 58% 30.03 in - ESE 12.7 mph - N/A   Clear
12:00 PM 83 °F - 61 °F 38% 29.83 in 12 mi ESE 10.4 mph - -   Overcast
12:00 PM 82.4 °F 82.9 °F 60.8 °F 48% 30.01 in 6.2 mi ESE 10.4 mph - N/A   Mostly Cloudy
12:30 PM 80.6 °F 83.2 °F 68.0 °F 65% 30.00 in 6.2 mi SW 9.2 mph - N/A   Mostly Cloudy
2:00 PM 78.8 °F - 68.0 °F 69% 29.98 in 6.2 mi SW 9.2 mph - N/A   Mostly Cloudy
3:00 PM 77.0 °F - 68.0 °F 74% 29.99 in 6.2 mi SW 6.9 mph - N/A   Overcast
4:00 PM 75.2 °F - 69.8 °F 83% 29.99 in 6.2 mi SW 6.9 mph - N/A Rain Light Rain
5:00 PM 73.4 °F - 68.0 °F 83% 29.99 in 6.2 mi WSW 4.6 mph - N/A   Mostly Cloudy
6:00 PM 73 °F - 67 °F 77% 29.83 in 12 mi West 3.5 mph - -   Overcast
6:00 PM 73.4 °F - 68.0 °F 83% 30.01 in 6.2 mi West 3.5 mph - N/A   Mostly Cloudy
7:00 PM 71.6 °F - 68.0 °F 88% 30.02 in 6.2 mi WNW 3.5 mph - N/A   Scattered Clouds
8:00 PM 71.6 °F - 68.0 °F 88% 30.03 in 6.2 mi WNW 3.5 mph - N/A   Scattered Clouds
9:00 PM 71 °F - 67 °F 84% 29.87 in 12 mi East 2.3 mph - -   Scattered Clouds
9:00 PM 71.6 °F - 68.0 °F 88% 30.03 in 6.2 mi WNW 3.5 mph - N/A   Mostly Cloudy
10:00 PM 69.8 °F - 66.2 °F 88% 30.04 in 6.2 mi East 2.3 mph - N/A   Mostly Cloudy
11:00 PM 69.8 °F - 66.2 °F 88% 30.04 in - NE 3.5 mph - N/A   Clear